Powrót do katalogu

LEMUR-2-LUCILLE-ROSE

AktywnyNaukaSSO
NORAD 65403·PAYLOAD·🇺🇸 United States

Wystrzelony Jun 23, 2025 z Vandenberg Space Force Base

Loading…

Następne Przeloty (najbliższe 24 godziny)

TLE

ŚwieżeSource: Space-Track

Epoka: Sep 14, 2026, 13:45 UTC

1 65403U 25135BV  26257.57297268  .00005231  00000-0  41144-3 0  9990
2 65403  97.7654  13.7342 0012448 357.1625   2.9526 15.01227444 62042

Śledź LEMUR-2-LUCILLE-ROSE w czasie rzeczywistym z AllMySat

Download on the App Store